User: anonymous   Login
Location: Hancock Field Station
(44.9202°N, 120.4259°W)
Time: 13:59:33
(UTC-07:00)
Language:

Cosmos 1707 - Orbit

View from above orbital plane
View from above orbital plane
View from above satellite
View from above satellite

Ground track
Ground track

The orbit data is extracted from the following two-line orbital elements,

1 16326U 85113A   15116.14447013  .00005132  00000-0  30568-3 0  9990
2 16326 082.5107 256.4357 0013108 119.5053 240.7486 15.10928262598999
Epoch (UTC): 26 April 2015 03:28:02
Eccentricity: 0.0013108
inclination: 82.5107°
perigee height: 524 km
apogee height: 542 km
right ascension of ascending node: 256.4357°
argument of perigee: 119.5053°
revolutions per day: 15.10928262
mean anomaly at epoch: 240.7486°
orbit number at epoch: 59899

The dashed part of the orbit path shows where the satellite is in the earth's shadow,  

DLR